30.06.2024;16:00;13
30.06.2024;15:00;12
30.06.2024;14:00;13
30.06.2024;13:00;20
30.06.2024;12:00;16
30.06.2024;11:00;14
30.06.2024;10:00;15
30.06.2024;09:00;18
30.06.2024;08:00;35
30.06.2024;07:00;32
30.06.2024;06:00;16
30.06.2024;05:00;21
30.06.2024;04:00;33
30.06.2024;03:00;43
30.06.2024;02:00;62
30.06.2024;01:00;26
29.06.2024;24:00;28
29.06.2024;23:00;18
29.06.2024;22:00;42
29.06.2024;21:00;29
29.06.2024;20:00;27
29.06.2024;19:00;38
29.06.2024;18:00;26
29.06.2024;17:00;18
29.06.2024;16:00;15
29.06.2024;15:00;10
29.06.2024;14:00;6
29.06.2024;13:00;7
29.06.2024;12:00;16
29.06.2024;11:00;11
29.06.2024;10:00;12
29.06.2024;09:00;13
29.06.2024;08:00;20
29.06.2024;07:00;20
29.06.2024;06:00;22
29.06.2024;05:00;21
29.06.2024;04:00;19
29.06.2024;03:00;12
29.06.2024;02:00;13
29.06.2024;01:00;24
28.06.2024;24:00;26
28.06.2024;23:00;28
28.06.2024;22:00;28
28.06.2024;21:00;12
28.06.2024;20:00;21
28.06.2024;19:00;13
28.06.2024;18:00;13
28.06.2024;17:00;14
28.06.2024;16:00;12
28.06.2024;15:00;3
28.06.2024;14:00;2
28.06.2024;13:00;5
28.06.2024;12:00;12
28.06.2024;11:00;9
28.06.2024;10:00;7
28.06.2024;09:00;4
28.06.2024;08:00;8
28.06.2024;07:00;26
28.06.2024;06:00;22
28.06.2024;05:00;16
28.06.2024;04:00;25
28.06.2024;03:00;18
28.06.2024;02:00;16
28.06.2024;01:00;14
27.06.2024;24:00;8
27.06.2024;23:00;11
27.06.2024;22:00;11
27.06.2024;21:00;15
27.06.2024;20:00;21
27.06.2024;19:00;17
27.06.2024;18:00;12
27.06.2024;17:00;8
27.06.2024;16:00;6
27.06.2024;15:00;8
27.06.2024;14:00;12
27.06.2024;13:00;12
27.06.2024;12:00;13
27.06.2024;11:00;20
27.06.2024;10:00;11
27.06.2024;09:00;8
27.06.2024;08:00;12
27.06.2024;07:00;13
27.06.2024;06:00;14
27.06.2024;05:00;14
27.06.2024;04:00;14
27.06.2024;03:00;13
27.06.2024;02:00;13
27.06.2024;01:00;16
26.06.2024;24:00;20
26.06.2024;23:00;14
26.06.2024;22:00;5
26.06.2024;21:00;3
26.06.2024;20:00;26
26.06.2024;19:00;26
26.06.2024;18:00;13
26.06.2024;17:00;7
26.06.2024;16:00;15
26.06.2024;15:00;13
26.06.2024;14:00;9
26.06.2024;13:00;14
26.06.2024;12:00;21
26.06.2024;11:00;18
26.06.2024;10:00;19
26.06.2024;09:00;13
26.06.2024;08:00;15
26.06.2024;07:00;17
26.06.2024;06:00;21
26.06.2024;05:00;18
26.06.2024;04:00;21
26.06.2024;03:00;24
26.06.2024;02:00;26
26.06.2024;01:00;27
25.06.2024;24:00;16
25.06.2024;23:00;25
25.06.2024;22:00;27
25.06.2024;21:00;21
25.06.2024;20:00;17
25.06.2024;19:00;19
25.06.2024;18:00;19
25.06.2024;17:00;13
25.06.2024;16:00;20
25.06.2024;15:00;14
25.06.2024;14:00;8
25.06.2024;13:00;12
25.06.2024;12:00;14
25.06.2024;11:00;12
25.06.2024;10:00;7
25.06.2024;09:00;3
25.06.2024;08:00;4
25.06.2024;07:00;15
25.06.2024;06:00;9
25.06.2024;05:00;12
25.06.2024;04:00;12
25.06.2024;03:00;24
25.06.2024;02:00;12
25.06.2024;01:00;5
